Tracking 19795 objects as of 20-Jul-2019
HD Live streaming from Space Station
objects crossing your sky now

FENGYUN 1C DEB

Track FENGYUN 1C DEB now!
10-day predictions


NORAD ID: 37038
Int'l Code: 1999-025EDW
Perigee: 773.9 km
Apogee: 857.0 km
Inclination: 99.0 °
Period: 101.0 minutes
Semi major axis: 7186 km
RCS: 0.0074 m2 (small)
Launch date: May 10, 1999
Source: People's Republic of China (PRC)
Launch site: Taiyaun Space Center, China (TSC)

Note: This is SATELLITE DEBRIS
aabbcc
Your satellite tracking list
Your tracking list is empty




NASA's NSSDC Master Catalog

Two Line Element Set (TLE):
1 37038U 99025EDW 19153.49486191  .00001314  00000-0  57114-3 0  9997
2 37038  99.0399 264.0884 0057873 270.6543  88.8004 14.25054280575973
Source of the keplerian elements: AFSPC